Flag for Russia Weather past 2 weeks in Kemerovo, Russia

Now
3 °F

Clear.


Feels Like: -4 °F
Forecast: -14 / 1 °F
Wind: 3 mph from South

Location: Kemerovo

Current Time: Jan 31, 2015 at 8:26:54 PM

Latest Report: Jan 31, 2015 at 8:00 PM


Visibility: 10 mi

Pressure: 30.48 "Hg

Humidity: 55%

Dew point: -9 °F

Location of KemerovoLocation

Historic Weather in Kemerovo — Graph

°F

Kemerovo temperature yesterday

Maximum temperature yesterday: 9 °F (at 3:00 PM)
Minimum temperature yesterday: 0 °F (at 9:00 AM)
Average temperature yesterday: 4 °F

Past Weeks' High & Low Weather Summary

 TemperatureHumidityPressure
High28 °F (Jan 17, 11:00 AM)100% (Jan 17, 12:00 AM)30.95 "Hg (Jan 17, 12:00 AM)
Low-31 °F (Jan 26, 8:00 AM)51% (Jan 30, 3:00 PM)29.56 "Hg (Jan 21, 8:30 AM)
Average4 °F84%30.25 "Hg
* Reported Jan 16 7:00 PM — Jan 31 7:30 PM, Kemerovo, Weather by CustomWeather, © 2014

Note: Actual official high and low records may vary slightly from our data, if they occured in-between our weather recording intervals... More about our weather records

Advertising

Kemerovo weather history for previous 24 hours

 ConditionsComfort  
Time TempWeatherWind HumidityBarometerVisibility
7:30 PM
Jan 31
3 °FClear.1 mph55%30.48 "Hg10 mi
7:00 PM3 °FClear.3 mph55%30.48 "Hg10 mi
6:30 PM5 °FSunny.3 mph55%30.45 "Hg10 mi
6:00 PM5 °FSunny.3 mph55%30.45 "Hg10 mi
5:30 PM7 °FSunny.3 mph51%30.45 "Hg10 mi
5:00 PM7 °FSunny.3 mph51%30.45 "Hg10 mi
4:30 PM5 °FSunny.3 mph51%30.45 "Hg10 mi
4:00 PM5 °FSunny.3 mph51%30.45 "Hg10 mi
3:30 PM7 °FSunny.3 mph51%30.45 "Hg10 mi
3:00 PM7 °FSunny.3 mph51%30.45 "Hg10 mi
2:30 PM5 °FSunny.1 mph55%30.45 "Hg10 mi
2:00 PM5 °FSunny.1 mph55%30.45 "Hg10 mi
1:30 PM1 °FSunny.3 mph60%30.45 "Hg10 mi
1:00 PM1 °FSunny.3 mph60%30.45 "Hg10 mi
12:30 PM-2 °FSunny.3 mph65%30.45 "Hg10 mi
12:00 PM-2 °FSunny.6 mph65%30.45 "Hg10 mi
11:30 AM-4 °FSunny.6 mph71%30.45 "Hg10 mi
11:00 AM-4 °FSunny.3 mph71%30.45 "Hg10 mi
10:00 AM-4 °FClear.6 mph71%30.45 "Hg10 mi
9:30 AM-4 °FClear.3 mph71%30.45 "Hg10 mi
9:00 AM-4 °FClear.3 mph71%30.42 "Hg10 mi
8:30 AM-8 °FClear.6 mph70%30.42 "Hg10 mi
8:00 AM-8 °FClear.6 mph70%30.42 "Hg10 mi
7:30 AM-4 °FClear.6 mph71%30.42 "Hg10 mi
7:00 AM-4 °FClear.6 mph71%30.42 "Hg10 mi
6:30 AM-4 °FClear.6 mph71%30.42 "Hg10 mi
6:00 AM-4 °FClear.8 mph71%30.42 "Hg10 mi
5:30 AM-4 °FClear.6 mph71%30.39 "Hg10 mi
5:00 AM-4 °FClear.6 mph71%30.39 "Hg10 mi
4:00 AM-4 °FClear.8 mph71%30.39 "Hg10 mi
3:30 AM-4 °FClear.6 mph65%30.39 "Hg10 mi
3:00 AM-4 °FClear.6 mph65%30.39 "Hg10 mi
2:30 AM-2 °FClear.6 mph65%30.39 "Hg10 mi
2:00 AM-2 °FClear.3 mph65%30.39 "Hg10 mi
1:30 AM-2 °FClear.6 mph71%30.39 "Hg10 mi
1:00 AM-2 °FClear.6 mph71%30.39 "Hg10 mi
12:30 AM0 °FClear.6 mph65%30.39 "Hg10 mi
12:00 AM0 °FClear.6 mph65%30.39 "Hg10 mi
11:30 PM
Jan 30
0 °FClear.6 mph65%30.39 "Hg10 mi
11:00 PM0 °FClear.8 mph65%30.39 "Hg10 mi
10:30 PM3 °FClear.8 mph66%30.39 "Hg10 mi
10:00 PM3 °FClear.10 mph66%30.39 "Hg10 mi
9:30 PM1 °FClear.8 mph71%30.39 "Hg10 mi
9:00 PM1 °FClear.6 mph71%30.39 "Hg10 mi
8:30 PM1 °FClear.8 mph71%30.39 "Hg10 mi
8:00 PM1 °FClear.6 mph71%30.39 "Hg10 mi
Weather by CustomWeather, © 2014

See weather overviewHow to use our weather pages